Showing default

INTELSAT 34, 40874

Orbit data source: Space-Track

INTELSAT 34, 40874 is a payload satellite owned by Intelsat SA (US) (US) in GEO that was launched on Thu, 20 Aug 2015 UTC via an ARIANE 5ECA launch vehicle from the French Guiana (FRGUI). Payloads include a variety of satellites, spacecraft, and rockets equipped with specific instruments for various scientific and technological missions. These include communications satellites like Starlink; space stations such as the ISS; scientific satellites like the Hubble; Earth observation satellites from companies like Planet Labs, Umbra, and HawkEye 360; GPS; miniature CubeSats for education and research; and military/defense satellites.

Loading next visibility...
INTELSAT 34 details
Identifier
40874, 2015-039A
Orbit
GEO
Last TLE update12 hours ago
Origin
Flag of USIntelsat SA (US) (US / ITSO)
ManufacturerSS/Loral (MDA)
MissionOperational Commercial Communications
Bus & MotorLS-1300, R-4D
Mass3,300 kg wet, ~1,800 kg dry
Launch date (UTC)
2015-08-20 (9 years ago)
Launch vehicle
ARIANE 5ECA
Launch site
French Guiana (FRGUI)
Object type
Payload
Rocket body
Debris
Shape & HBRBox + 2 Pan, 24.7 m
Radar Cross Section38.748 m², Large (>1 m²)

Expand to show TLE details & history

TLE from 12 hours ago
0 INTELSAT 34
1 40874U 15039A   24361.30327135 -.00000257  00000-0  00000-0 0  9996
2 40874   0.0182   5.8947 0000446 157.0781 346.0023  1.00270845 34239
Epoch: 2024-12-26T07:16Z
Definitive object data (Epoch: 2024-12-26T07:16:42.644Z)
Latitude0.02218°
Longitude-55.49603°
Altitude35,784.528 km
Speed3.075 km/s
True Right ascension09h 55m 51s
True Declination0° 01' 20"
Sunlit
Object was in daylight at TLE epoch
Visualization TLE readout
Latitude-0.0243°
Longitude122.21284°
Altitude35,788.205 km
Speed3.075 km/s
Apparent Right ascension22h 08m 34s
Apparent Declination-5° 57' 32"
Sunlit
Object is in daylight
Visualization observer readout
Local Sidereal Time18:28:12
Azimuth118.609° SE
Elevation21.713°
Doppler factor1
Orbital elements
Apogee altitude35,789.809 km
Perigee altitude35,786.048 km
Semi-major axis42,166.066 km
Eccentricity0.0000446
Inclination0.0182°
RAAN5.8947°
Arg. of periapsis157.0781°
True anomaly346.00106°
Mean anomaly346.0023°
Eccentric anomaly346.00168°
Mean motion0.25067 °/min
BSTARUnknown
Orbital period1436.16 mins
Loading historical data...
40874 neighbors
Authenticating...
Loading maneuver chart data...
Loading historical data...
Loading historical data...
Loading historical data...
Loading historical data...
Loading historical data...
Loading historical data...
Loading historical data...
Other satellites on launch #39 in the year 2015 (2015-08-20 UTC)

INTELSAT 34 Visibility forecast

Observer location: undefined°, undefined

Span
Click to sort rows by Start time (UTC) header in descending order
Start Az.
Max El. time (UTC)
Max El. Az.
Max El.
End time (UTC)
End Az.
1440 mins2024-12-26 19:05:36.172Z118.624° SE2024-12-27 03:53:36.172Z118.579° SE20.342°2024-12-27 19:05:36.172Z118.629° SE
|